Regional Weather Roundup
Issued by NWS

Home | Current Version | Previous Version | Graphics & Text | Print | Product List | Glossary On
Versions: 1 2 3 4 5 6 7 8 9 10 11 12 13 14 15 16 17 18 19 20 21 22 23 24 25 26 27 28 29 30 31 32 33 34 35 36 37 38 39 40 41 42 43 44 45 46 47 48 49 50
000
ASUS43 KLOT 190508
RWRIL

ILLINOIS REGIONAL WEATHER ROUNDUP
NATIONAL WEATHER SERVICE CHICAGO/ROMEOVILLE IL
1200 AM CDT THU APR 19 2018

NOTE: "FAIR" INDICATES FEW OR NO CLOUDS BELOW 12,000 FEET WITH NO
SIGNIFICANT WEATHER AND/OR OBSTRUCTIONS TO VISIBILITY.

* THESE STATIONS ARE NOT UNDER NWS QUALITY CONTROL. THEY ALSO MAY NOT
  REPORT WEATHER SUCH AS PRECIPITATION OR FOG.

ILZ001-002-007-009-015-016-024-190600-
NORTHWEST ILLINOIS

CITY           SKY/WX    TMP DP  RH WIND       PRES   REMARKS
MOLINE         LGT SNOW  33  31  92 NW14      30.08R FOG     WCI  23
STERLING*      LGT SNOW  32  31  96 NW12      30.04R FOG     WCI  23
SAVANNA*       CLOUDY    32  31  94 NW10      30.06R WCI  24
$$

ILZ003-004-008-010-011-017-018-190600-
NORTH CENTRAL ILLINOIS

CITY           SKY/WX    TMP DP  RH WIND       PRES   REMARKS
ROCKFORD       LGT SNOW  32  30  92 N10       30.03R FOG     WCI  24
FREEPORT*      FLURRIES  32  30  95 N10       30.05R WCI  23
ROCHELLE*      LGT SNOW  32  31  98 NW12      30.01R WCI  23
DE KALB*       LGT SNOW  32  31  99 NW8       29.99R WCI  25
PERU*          MOCLDY    34  32  92 NW17      30.02R WCI  24
$$

ILZ005-006-012>014-019>023-190600-
NORTHEAST ILLINOIS

CITY           SKY/WX    TMP DP  RH WIND       PRES   REMARKS
CHICAGO-OHARE  LGT SNOW  32  32 100 N12       29.94R FOG     WCI  23
CHICAGO-MIDWAY LGT SNOW  33  32  96 NW12      29.94R VSB 1   WCI  24
AURORA         LGT SNOW  32  31  96 NW16      29.97R FOG     WCI  21
LANSING*       LGT SNOW  32  32 100 NW8       29.93R VSB 3/4 WCI  25
JOLIET*        MIX PCPN  33  33  99 NW9       29.97R WCI  26
WAUKEGAN       MIX PCPN  34  33  96 N10G22    29.96R FOG     WCI  26
DUPAGE AIRPORT LGT SNOW  32  32 100 NW15      29.96R FOG     WCI  22
KANKAKEE*      LGT RAIN  33  32  96 NW12G18   29.96R WCI  24
WHEELING       LGT SNOW  34  33  96 N7        29.97R FOG     WCI  28
MORRIS*        LGT SNOW  32  32  98 NW9       29.97R WCI  25
ROMEOVILLE*    LGT SNOW  32  32 100 NW12      29.96R VSB 1   WCI  23
NORTHERLY ISL    N/A     34  32  92 NW12        N/A  WCI  25
$$

LMZ740>746-190600-
SOUTHERN LAKE MICHIGAN

STATION/POSITION SKY/WX   TEMP    WIND        PRES    VSBY  WAVE
                          AIR SEA DIR/SP/G                  HT/PER
                          (F)     (DEG/KT/KT) (MB)    (MI)  (FT/S)
HARRISON CRIB              36      10/ 19/ 21   N/A
BURNHAM HARBOR             34     330/  7/ 10   N/A
CALUMET HARBOR             32     290/  6/ 10 1013.0R
BURNS HARBOR               35      10/ 14/ 18 1012.9R
MICHIGAN CITY              34      10/ 21/ 23   N/A
$$

ILZ025>027-034>036-040-047-049-050-058-095>099-190600-
WEST-CENTRAL ILLINOIS

CITY           SKY/WX    TMP DP  RH WIND       PRES   REMARKS
QUINCY         CLOUDY    34  27  75 NW14      30.12R WCI  25
GALESBURG*     CLOUDY    36  33  90 NW12G18   30.09R WCI  28
MACOMB*        CLOUDY    33  29  86 NW15      30.12R WCI  23
JACKSONVILLE*  MOCLDY    34  27  75 NW16G25   30.10R WCI  24
PITTSFIELD*    CLOUDY    37  28  72 NW13G21   30.13R WCI  28
$$

ILZ028>032-037-038-041>044-048-051>054-059>061-190600-
CENTRAL ILLINOIS

CITY           SKY/WX    TMP DP  RH WIND       PRES   REMARKS
PONTIAC        LGT SNOW  33  33  99 NW14      30.00R WCI  24
BLOOMINGTON    CLOUDY    32  30  92 NW18      30.02R WCI  20
DECATUR        CLOUDY    35  29  78 NW15G24   30.03R WCI  25
PEORIA         CLOUDY    34  29  82 NW9       30.06R WCI  27
LACON*         DRIZZLE   32  31  96 NW10      30.04R WCI  24
LINCOLN*       CLOUDY    35  32  90 NW10G16   30.06R WCI  27
SPRINGFIELD    CLOUDY    37  29  72 NW17G24   30.07R WCI  27
TAYLORVILLE    CLOUDY    36  28  74 NW18G25   30.07R WCI  25
$$

ILZ033-039-045-046-055>057-062-063-190600-
EAST-CENTRAL ILLINOIS

CITY           SKY/WX    TMP DP  RH WIND       PRES   REMARKS
CHAMPAIGN      LGT SNOW  33  32  96 NW15      29.99R FOG     WCI  23
DANVILLE*      CLOUDY    34  32  92 NW15G21   29.94R WCI  24
RANTOUL*       DRIZZLE   36  33  92 NW20      29.98R WCI  25
MATTOON        FAIR      35  29  78 NW21G28   30.01R WCI  24
PARIS*         CLOUDY    36  32  85 NW18G26   29.99R WCI  25
$$

ILZ079-100>102-190600-
SOUTHWEST ILLINOIS

CITY           SKY/WX    TMP DP  RH WIND       PRES   REMARKS
ALTON          CLOUDY    38  27  63 NW15G25   30.11R WCI  30
BELLEVILLE     CLOUDY    40  25  53 NW13      30.09R
CAHOKIA*       CLOUDY    41  23  48 NW21G37   30.11R
SPARTA*        CLOUDY    41  28  60 NW12G24   30.11R
$$

ILZ064>066-069>071-074>076-080>082-084>086-088>090-092>094-190600-
SOUTH-CENTRAL ILLINOIS

CITY           SKY/WX    TMP DP  RH WIND       PRES   REMARKS
CARBONDALE     CLOUDY    44  28  53 NW21G33   30.08R
CAIRO*         FAIR      47  33  57 NW15G23   30.07R
EFFINGHAM*     CLOUDY    38  30  73 W21G28    30.06R WCI  28
MARION         CLOUDY    43  28  55 NW9G25    30.08R
MT. VERNON     CLOUDY    41  28  60 W8        30.07R
CENTRALIA*     CLOUDY    41  31  68 NW17G35   30.07R
SALEM*         CLOUDY    41  28  60 NW22G32   30.06R
METROPOLIS*    FAIR      48  33  56 NW13G23   30.06R
$$

ILZ067-068-072-073-078-083-087-091-190600-
SOUTHEAST ILLINOIS

CITY           SKY/WX    TMP DP  RH WIND       PRES   REMARKS
LAWRENCEVILLE  CLOUDY    41  28  60 NW22G35   30.02R
FLORA*         CLOUDY    41  30  63 NW18G25   30.05R
FAIRFIELD*     CLOUDY    42  29  61 NW8       30.05R
HARRISBURG*    CLOUDY    44  32  63 NW17G32   30.07R
ROBINSON*      CLOUDY    39  29  68 NW22G30   30.02R WCI  28
CARMI*         CLOUDY    43  32  64 NW21G33   30.04R
$$

ABBREVIATIONS USED IN REMARKS
   TC - TEMPERATURE IN CELSIUS
  WCI - WIND CHILL INDEX
   HX - HEAT INDEX
  VSB - VISIBILITY
$$





USA.gov is the U.S. government's official web portal to all federal, state and local government web resources and services.